Location: Unspecified
(64.9000°N, 0.0000°E)
Time: 13:41:21
(UTC+00:00)

A-11 Canister half - Pass Details

Date: 21 June 2019
Orbit: 1526 x 1683 km, 47.3° (Epoch: 19 August)

Event Time Altitude Azimuth Distance (km) Brightness Sun altitude
Rises 11:22:26 0° 271° (W) 4,683 11.4 48.0°
Reaches altitude 10° 11:28:20 10° 242° (WSW) 3,699 11.3 48.2°
Maximum altitude 11:31:03 12° 225° (SW) 3,574 11.4 48.2°
Drops below altitude 10° 11:33:48 10° 207° (SSW) 3,708 11.7 48.3°
Sets 11:39:46 0° 178° (S) 4,712 12.2 48.4°
